Regional Weather Roundup
Issued by NWS

Home | Current Version | Previous Version | Graphics & Text | Print | Product List | Glossary On
Versions: 1 2 3 4 5 6 7 8 9 10 11 12 13 14 15 16 17 18 19 20 21 22 23 24 25 26 27 28 29 30 31 32 33 34 35 36 37 38 39 40 41 42 43 44 45 46 47 48 49 50
000
ASUS43 KLOT 262358
RWRIL

ILLINOIS REGIONAL WEATHER ROUNDUP
NATIONAL WEATHER SERVICE CHICAGO/ROMEOVILLE IL
600 PM CST THU FEB 26 2015

NOTE: "FAIR" INDICATES FEW OR NO CLOUDS BELOW 12,000 FEET WITH NO
SIGNIFICANT WEATHER AND/OR OBSTRUCTIONS TO VISIBILITY.

* THESE STATIONS ARE NOT UNDER NWS QUALITY CONTROL. THEY ALSO MAY NOT
  REPORT WEATHER SUCH AS PRECIPITATION OR FOG.

ILZ001-002-007-009-015-016-024-270100-
NORTHWEST ILLINOIS

CITY           SKY/WX    TMP DP  RH WIND       PRES   REMARKS
MOLINE         CLEAR      9  -3  58 NW15      30.41R WCI  -8
6HR MIN TEMP:   9; 6HR MAX TEMP:  15;

$$

ILZ003-004-008-010-011-017-018-270100-
NORTH CENTRAL ILLINOIS

CITY           SKY/WX    TMP DP  RH WIND       PRES   REMARKS
ROCKFORD       NOT AVBL
$$

ILZ005-006-012>014-019>023-270100-
NORTHEAST ILLINOIS

CITY           SKY/WX    TMP DP  RH WIND       PRES   REMARKS
CHICAGO-OHARE  PTCLDY    11  -4  51 NW10      30.32R WCI  -3
6HR MIN TEMP:  10; 6HR MAX TEMP:  19; 6HR PCP: TRACE;

CHICAGO-MIDWAY NOT AVBL
AURORA         CLEAR      6  -4  63 NW9       30.35R WCI  -8
6HR MIN TEMP:   6; 6HR MAX TEMP:  18;

WAUKEGAN       NOT AVBL
DUPAGE AIRPORT CLEAR     10  -2  58 NW10      30.33R WCI  -4
6HR MIN TEMP:  10; 6HR MAX TEMP:  19; 6HR PCP: TRACE;

WHEELING       CLEAR     12  -4  48 NW10      30.35R WCI  -1
6HR MIN TEMP:  12; 6HR MAX TEMP:  19; 6HR PCP: TRACE;

NORTHERLY ISL    N/A     14   2  58 N9          N/A  WCI   2
$$

LMZ740>746-270100-
SOUTHERN LAKE MICHIGAN

STATION/POSITION SKY/WX   TEMP    WIND        PRES    VSBY  WAVE
                          AIR SEA DIR/SP/G                  HT/PER
                          (F)     (DEG/KT/KT) (MB)    (MI)  (FT/S)
WAUKEGAN HARBOR            13     320/  7/ 11   N/A
HARRISON CRIB              16     320/ 14/ 17   N/A
BURNHAM HARBOR             14     360/ 12/ 15   N/A
CALUMET HARBOR             15     330/  8/ 11 1025.1R
MICHIGAN CITY              15     360/ 16/ 20   N/A
$$

ILZ025>027-034>036-040-047-049-050-058-095>099-270100-
WEST-CENTRAL ILLINOIS

CITY           SKY/WX    TMP DP  RH WIND       PRES   REMARKS
$$

ILZ028>032-037-038-041>044-048-051>054-059>061-270100-
CENTRAL ILLINOIS

CITY           SKY/WX    TMP DP  RH WIND       PRES   REMARKS
PEORIA         NOT AVBL
SPRINGFIELD    LGT SNOW  16   8  71 NW15      30.38R WCI   1
6HR MIN TEMP:  16; 6HR MAX TEMP:  21; 6HR PCP: TRACE;

TAYLORVILLE    NOT AVBL
$$

ILZ033-039-045-046-055>057-062-063-270100-
EAST-CENTRAL ILLINOIS

CITY           SKY/WX    TMP DP  RH WIND       PRES   REMARKS
MATTOON        CLOUDY    17   9  70 N10       30.31R WCI   5
$$

ILZ079-100>102-270100-
SOUTHWEST ILLINOIS

CITY           SKY/WX    TMP DP  RH WIND       PRES   REMARKS
ALTON          CLOUDY    19  10  68 NW16      30.36S WCI   5
$$

ILZ064>066-069>071-074>076-080>082-084>086-088>090-092>094-270100-
SOUTH-CENTRAL ILLINOIS

CITY           SKY/WX    TMP DP  RH WIND       PRES   REMARKS
CARBONDALE     LGT SNOW  23  15  71 N14       30.36R WCI  11
6HR MIN TEMP:  23; 6HR MAX TEMP:  26; 6HR PCP: TRACE;

MARION         LGT SNOW  25  16  68 N12G18    30.35R WCI  14
$$

ILZ067-068-072-073-078-083-087-091-270100-
SOUTHEAST ILLINOIS

CITY           SKY/WX    TMP DP  RH WIND       PRES   REMARKS
$$

ABBREVIATIONS USED IN REMARKS
   TC - TEMPERATURE IN CELSIUS
  WCI - WIND CHILL INDEX
   HX - HEAT INDEX
  VSB - VISIBILITY
$$



USA.gov is the U.S. government's official web portal to all federal, state and local government web resources and services.